This is the latest recevied weather packets stored in our database for station/object KG0HG. If no packets are shown the sender has not sent any weather packets the latest 10 day(s).
| Time | Temp. | Humidity | Pressure | Rain* | Wind** | Luminosity | Snow |
|---|---|---|---|---|---|---|---|
| 1778113357 | 15.56° C | 33% | 1017.2 hPa | 0 mm | - | 53 W/m² | - |
| 1778113054 | 15.56° C | 34% | 1016.9 hPa | 0 mm | - | 64 W/m² | - |
| 1778112751 | 15.56° C | 33% | 1017.2 hPa | 0 mm | - | 74 W/m² | - |
| 1778112447 | 16.11° C | 33% | 1017.3 hPa | 0 mm | - | 63 W/m² | - |
| 1778112143 | 15.56° C | 33% | 1017.3 hPa | 0 mm | - | 32 W/m² | - |
| 1778111840 | 15.56° C | 35% | 1017.3 hPa | 0 mm | - | 31 W/m² | - |
| 1778111535 | 15.56° C | 33% | 1017.3 hPa | 0 mm | - | 131 W/m² | - |
| 1778111233 | 15.56° C | 35% | 1017.2 hPa | 0 mm | - | 126 W/m² | - |
| 1778110930 | 15.56° C | 34% | 1017.2 hPa | 0 mm | - | 43 W/m² | - |
| 1778110627 | 15.56° C | 32% | 1017.3 hPa | 0 mm | - | 34 W/m² | - |
| 1778110324 | 16.11° C | 32% | 1017.1 hPa | 0 mm | - | 42 W/m² | - |
| 1778110020 | 16.11° C | 32% | 1017 hPa | 0 mm | - | 35 W/m² | - |
| 1778109715 | 16.11° C | 33% | 1017.1 hPa | 0 mm | - | 34 W/m² | - |
| 1778109413 | 15.56° C | 32% | 1017.2 hPa | 0 mm | - | 33 W/m² | - |
| 1778109111 | 16.11° C | 35% | 1017.1 hPa | 0 mm | - | 37 W/m² | - |
| 1778108807 | 16.11° C | 34% | 1017 hPa | 0 mm | - | 36 W/m² | - |
| 1778108504 | 16.11° C | 34% | 1017.3 hPa | 0 mm | - | 107 W/m² | - |
| 1778108201 | 16.11° C | 33% | 1017.1 hPa | 0 mm | - | 36 W/m² | - |
| 1778107898 | 15.56° C | 34% | 1017 hPa | 0 mm | - | 45 W/m² | - |
| 1778107594 | 16.11° C | 36% | 1017.1 hPa | 0 mm | - | 37 W/m² | - |
| 1778107291 | 15.56° C | 34% | 1017.2 hPa | 0 mm | - | 37 W/m² | - |
| 1778106987 | 15.56° C | 33% | 1017.2 hPa | 0 mm | - | 39 W/m² | - |
| 1778106683 | 15.56° C | 34% | 1017.4 hPa | 0 mm | - | 38 W/m² | - |
| 1778106380 | 16.11° C | 35% | 1017.3 hPa | 0 mm | - | 44 W/m² | - |
| 1778106076 | 16.11° C | 34% | 1017.4 hPa | 0 mm | - | 50 W/m² | - |
* Rain latest hour (hover to see other rain measurements)
** Current wind speed in m/s (hover to see current wind gust speed)